Regional Weather Roundup
Issued by NWS

Home | Current Version | Previous Version | Text Only | Print | Product List | Glossary Off
Versions: 1 2 3 4 5 6 7 8 9 10 11 12 13 14 15 16 17 18 19 20 21 22 23 24 25 26 27 28 29 30 31 32 33 34 35 36 37 38 39 40 41 42 43 44 45 46 47 48 49 50

000
ASUS43 KLOT 291310
RWRIL

ILLINOIS REGIONAL WEATHER ROUNDUP
NATIONAL WEATHER SERVICE CHICAGO/ROMEOVILLE IL
800 AM CDT TUE JUL 29 2014

NOTE: "FAIR" INDICATES FEW OR NO CLOUDS BELOW 12,000 FEET WITH NO
SIGNIFICANT WEATHER AND/OR OBSTRUCTIONS TO VISIBILITY.

* THESE STATIONS ARE NOT UNDER NWS QUALITY CONTROL. THEY ALSO MAY NOT
  REPORT WEATHER SUCH AS PRECIPITATION OR FOG.

ILZ001-002-007-009-015-016-024-291400-
NORTHWEST ILLINOIS

CITY           SKY/WX    TMP DP  RH WIND       PRES   REMARKS
MOLINE         SUNNY     62  57  83 W7        30.12R
STERLING*      SUNNY     59  54  82 NW3       30.11R
SAVANNA*       SUNNY     62  55  75 NW3       30.11R
$$

ILZ003-004-008-010-011-017-018-291400-
NORTH CENTRAL ILLINOIS

CITY           SKY/WX    TMP DP  RH WIND       PRES   REMARKS
ROCKFORD       PTSUNNY   61  54  77 CALM      30.10S
FREEPORT*      SUNNY     60  56  86 W6        30.11
ROCHELLE*      MOSUNNY   60  53  76 W7        30.09S
DE KALB*       SUNNY     61  53  75 W10       30.08S
PERU*          CLOUDY    60  54  82 NW9       30.11R
$$

ILZ005-006-012>014-019>023-291400-
NORTHEAST ILLINOIS

CITY           SKY/WX    TMP DP  RH WIND       PRES   REMARKS
CHICAGO-OHARE  MOSUNNY   65  52  62 W8        30.04S
CHICAGO-MIDWAY MOSUNNY   65  56  72 W8        30.05S
AURORA         SUNNY     61  54  77 W9        30.08R
LANSING*       PTSUNNY   61  54  78 CALM      30.06S
JOLIET*        SUNNY     62  52  71 CALM      30.08S
WAUKEGAN       MOSUNNY   64  54  69 W8        30.03S
DUPAGE AIRPORT SUNNY     64  54  69 W6        30.06R
KANKAKEE*      SUNNY     60  56  89 W5        30.08S
WHEELING       SUNNY     66  54  65 NW6       30.06R
MORRIS*        MOSUNNY   62  56  82 W6        30.07S
ROMEOVILLE*    MOSUNNY   61  53  76 NW6       30.07S
NORTHERLY ISL    N/A     65  54  67 W7          N/A
$$

LMZ740>746-291400-
SOUTHERN LAKE MICHIGAN

STATION/POSITION SKY/WX   TEMP    WIND        PRES    VSBY  WAVE
                          AIR SEA DIR/SP/G                  HT/PER
                          (F)     (DEG/KT/KT) (MB)    (MI)  (FT/S)
SOUTHERN BUOY              61 60  280/ 10/ 12 1016.4R         1/ 5
WAUKEGAN HARBOR            65     300/  9/ 13   N/A
HARRISON CRIB              64     290/  7/  8   N/A
BURNHAM HARBOR             65     250/  6/ 10   N/A
CALUMET HARBOR             63     240/  3/  6 1016.4R
MICHIGAN CITY              59     190/  9/ 12   N/A
MICHIGAN CITY 6N           63 67  220/ 10/ 12   N/A           2/ 5
ST. JOSEPH                 64 66  220/ 14/ 16   N/A           2/ 4
$$

ILZ025>027-034>036-040-047-049-050-058-095>099-291400-
WEST-CENTRAL ILLINOIS

CITY           SKY/WX    TMP DP  RH WIND       PRES   REMARKS
QUINCY         SUNNY     62  58  86 W6        30.14S
GALESBURG*     SUNNY     60  60  98 W3        30.13S
MACOMB*        SUNNY     59  58  96 NW5       30.16R
JACKSONVILLE*  SUNNY     62  60  91 W5        30.14S
PITTSFIELD*    SUNNY     63  58  85 W5        30.15S
$$

ILZ028>032-037-038-041>044-048-051>054-059>061-291400-
CENTRAL ILLINOIS

CITY           SKY/WX    TMP DP  RH WIND       PRES   REMARKS
PONTIAC        MOSUNNY   61  57  88 W6        30.10R
DECATUR        SUNNY     64  54  69 NW6       30.12R
PEORIA         SUNNY     64  54  69 NW6       30.12R
LACON*         SUNNY     62  54  75 CALM      30.10S
LINCOLN*       SUNNY     62  55  78 NW3       30.10S
SPRINGFIELD    SUNNY     61  56  83 W3        30.13S
TAYLORVILLE    SUNNY     59  54  82 CALM      30.13R
$$

ILZ033-039-045-046-055>057-062-063-291400-
EAST-CENTRAL ILLINOIS

CITY           SKY/WX    TMP DP  RH WIND       PRES   REMARKS
CHAMPAIGN      SUNNY     60  56  86 W10       30.11R
DANVILLE*      MOSUNNY   58  55  88 NW5       30.06S
RANTOUL*       SUNNY     62  54  76 NW8       30.11R
MATTOON        SUNNY     60  54  80 NW12      30.10S
PARIS*         PTSUNNY   59  56  88 NW5       30.10S
$$

ILZ079-100>102-291400-
SOUTHWEST ILLINOIS

CITY           SKY/WX    TMP DP  RH WIND       PRES   REMARKS
ALTON          SUNNY     61  59  94 W3        30.15R
BELLEVILLE     SUNNY     62  58  88 CALM      30.13S
CAHOKIA*       SUNNY     63  57  81 SW3       30.15R
SPARTA*        SUNNY     59  55  88 NW3       30.15S
$$

ILZ064>066-069>071-074>076-080>082-084>086-088>090-092>094-291400-
SOUTH-CENTRAL ILLINOIS

CITY           SKY/WX    TMP DP  RH WIND       PRES   REMARKS
CARBONDALE     SUNNY     60  55  83 W3        30.14R
CAIRO*         SUNNY     65  59  81 CALM      30.14R
EFFINGHAM*     SUNNY     61  53  74 W6        30.12S
MARION         SUNNY     61  57  88 W6        30.15R
MT. VERNON     SUNNY     61  54  77 CALM      30.14S
CENTRALIA*     SUNNY     72  58  61 W3        30.13S
SALEM*         SUNNY    N/A N/A N/A CALM      30.14R
METROPOLIS*    SUNNY     63  53  70 N5        30.13R
$$

ILZ067-068-072-073-078-083-087-091-291400-
SOUTHEAST ILLINOIS

CITY           SKY/WX    TMP DP  RH WIND       PRES   REMARKS
LAWRENCEVILLE  SUNNY     62  54  74 NW10      30.11R
FLORA*         SUNNY     63  54  72 NW5       30.13R
FAIRFIELD*     SUNNY     59  55  88 CALM      30.12S
HARRISBURG*    SUNNY     62  60  90 CALM      30.14S
ROBINSON*      SUNNY     61  57  86 NW6       30.11S
CARMI*         PTSUNNY   63  57  82 W7        30.12S
$$

ABBREVIATIONS USED IN REMARKS
   TC - TEMPERATURE IN CELSIUS
  WCI - WIND CHILL INDEX
   HX - HEAT INDEX
  VSB - VISIBILITY
$$




USA.gov is the U.S. government's official web portal to all federal, state and local government web resources and services.